Content
SEND FEEDBACK

Daily
Averages
Monthly
Summary
Philippines

OLONGAPO, PHILIPPINES


Home > Asia > Philippines
Elevation: 55 feet     Latitude: 14 48N     Longitude: 120 16E

WEATHER
 
SELECT A DAY
Number of Records: 135,161;   Date Range: 7/31/96 - 9/16/14
 
SHARE

PRINT THIS DATA

[ ← Previous Day ]
WEATHER ALMANAC - JULY 13, 2013
[ Next Day → ]
[ °C ]   °F
Weather ElementAverageHighLow
Temperature84.4 °F89.6 °F (12:00 pm)78.8 °F (5:00 am)
Dewpoint76.8 °F78.8 °F (1:00 pm)73.4 °F (12:00 pm)
Humidity77.1 %89 % (5:00 am)59 % (12:00 pm)
Barometer29.71 in29.76 in (11:00 pm)29.68 in (5:00 am)
Wind Speed8.7 mph15.7 mph (8:00 am)
Weather ElementAverage
Visibility7.2 mi
Wind DirectionSSW (193.9 °)

Weather ElementTotal
Precipitation---
Cooling Degree Days19.2 (Base 65)
Growing Degree Days34.2 (Base 50)
Averaged from 23 records on July 13, 2013
WEATHER CONDITIONS BREAKOUT
WIND DIRECTION BREAKOUT
WEATHER BY HOUR - JULY 13, 2013
[ °C ]   °F
Local TimeTemperatureDewpointHumidityBarometerVisibilityWind DirectionWind SpeedGust SpeedPrecipitationEventsConditions
5:00 AM78.8 °F75.2 °F89 %29.68 in6.2 miSouth (170°)4.6 mphMostly Cloudy
6:00 AM82.4 °F77.0 °F84 %29.71 in5.6 miSouth (170°)6.9 mphRainRain Showers
7:00 AM82.4 °F77.0 °F84 %29.71 in5.6 miSouth (170°)6.9 mphRainRain Showers
8:00 AM83.0 °F77.0 °F79 %29.72 in6.0 miSSW (210°)15.7 mphHaze
8:00 AM84.2 °F77.0 °F79 %29.71 in5.6 miSSW (210°)15.0 mphRainRain Showers
9:00 AM84.2 °F77.0 °F79 %29.71 in5.6 miSSW (210°)12.7 mphRainRain Showers
10:00 AM82.4 °F77.0 °F84 %29.74 in6.2 miWSW (240°)13.8 mphScattered Clouds
11:00 AM85.0 °F75.0 °F64 %29.74 in11.0 miWSW (240°)11.2 mphHaze
11:00 AM84.2 °F75.2 °F74 %29.74 in6.2 miWSW (240°)11.5 mphOvercast
12:00 PM89.6 °F73.4 °F59 %29.71 in6.2 miSSW (210°)11.5 mphMostly Cloudy
1:00 PM89.6 °F78.8 °F70 %29.71 in6.2 miSW (220°)11.5 mphMostly Cloudy
2:00 PM87.8 °F78.8 °F75 %29.68 in6.2 miSW (220°)6.9 mphOvercast
2:00 PM88.0 °F78.0 °F66 %29.70 in11.0 miSW (220°)11.2 mphHaze
3:00 PM87.8 °F78.8 °F75 %29.68 in6.2 miSW (220°)9.2 mphMostly Cloudy
4:00 PM86.0 °F77.0 °F74 %29.68 in6.2 miSSW (210°)10.4 mphMostly Cloudy
5:00 PM86.0 °F78.0 °F71 %29.69 in12.0 miSSW (210°)8.9 mphHaze
5:00 PM86.0 °F77.0 °F74 %29.68 in6.2 miSSW (210°)8.1 mphMostly Cloudy
6:00 PM84.2 °F77.0 °F79 %29.68 in6.2 miSW (220°)6.9 mphMostly Cloudy
7:00 PM84.2 °F77.0 °F79 %29.71 in6.2 miSouth (170°)4.6 mphMostly Cloudy
8:00 PM82.0 °F77.0 °F80 %29.74 in12.0 miSE (140°)2.3 mphHaze
8:00 PM82.4 °F77.0 °F84 %29.74 in6.2 miSE (140°)4.6 mphMostly Cloudy
9:00 PM80.6 °F77.0 °F89 %29.74 in6.2 miSE (140°)2.3 mphScattered Clouds
11:00 PM80.0 °F75.0 °F82 %29.76 in11.0 miENE (70°)2.3 mphHaze
Hourly data recorded from RPLB, located miles away from Olongapo, Philippines







STORIES FROM OUR PARTNERS